EW9776 Weather Reports


Display with metric or nautical units.
time (UTC)temp
F
wind
direction
speed
MPH
gust
MPH
rain 1hr
in
rain 24hr
in
rain mn
in
humidity
%
barometer
mb
20260506090035 50 133 2.0 3.0 0.00 0.00 0.00 93 1017.5
20260506084535 50 113 0.0 3.0 0.00 0.00 0.00 93 1017.5
20260506083034 50 126 0.0 3.0 0.00 0.00 0.00 93 1017.3
20260506081535 50 144 0.0 2.0 0.00 0.00 0.00 92 1017.3
20260506080141 51 124 2.0 3.0 0.00 0.00 0.00 91 1017.1
20260506073037 53 100 2.0 4.0 0.00 0.00 0.00 88 1017.0
20260506071534 54 91 1.0 5.0 0.00 0.00 0.00 87 1016.9
20260506061536 52 172 1.0 3.0 0.00 0.00 0.00 89 1016.6
20260506044535 54 119 0.0 2.0 0.00 0.00 0.00 84 1015.8
20260506043035 55 109 0.0 4.0 0.00 0.00 0.00 83 1015.7
20260506040141 56 108 1.0 6.0 0.00 0.00 0.00 78 1015.5
20260506033109 59 100 1.0 7.0 0.00 0.00 0.00 74 1014.9
20260506031535 60 91 2.0 5.0 0.00 0.00 0.00 70 1014.8
20260506023034 65 82 2.0 6.0 0.00 0.00 0.00 63 1014.3
20260506021537 66 60 2.0 8.0 0.00 0.00 0.00 62 1014.2
20260506014532 67 59 2.0 6.0 0.00 0.00 0.00 60 1014.1
20260506013057 68 62 3.0 9.0 0.00 0.00 0.00 59 1014.0
20260506011536 69 51 3.0 7.0 0.00 0.00 0.00 59 1013.9
20260506010033 70 58 3.0 8.0 0.00 0.00 0.00 58 1014.0
20260506004537 71 56 4.0 10.0 0.00 0.00 0.00 57 1013.9
20260506003034 71 48 4.0 9.0 0.00 0.00 0.00 56 1013.8
20260506000108 72 29 5.0 9.0 0.00 0.00 0.00 57 1014.0
20260505234539 71 35 5.0 10.0 0.00 0.00 0.00 56 1014.1
20260505231534 72 29 4.0 11.0 0.00 0.00 0.00 57 1014.2
20260505224534 70 30 4.0 9.0 0.00 0.00 0.00 59 1014.4
20260505220036 70 39 5.0 11.0 0.00 0.00 0.00 59 1014.7
20260505213034 69 34 6.0 10.0 0.00 0.00 0.00 60 1014.8
20260505211536 69 38 5.0 9.0 0.00 0.00 0.00 60 1014.9
20260505210036 68 32 4.0 10.0 0.00 0.00 0.00 60 1015.0
20260505204532 68 51 5.0 11.0 0.00 0.00 0.00 61 1015.2
20260505203035 67 26 4.0 9.0 0.00 0.00 0.00 61 1015.3
20260505201606 68 24 5.0 11.0 0.00 0.00 0.00 61 1015.4
20260505194609 67 32 6.0 11.0 0.00 0.00 0.00 61 1015.5
20260505193036 67 32 5.0 11.0 0.00 0.00 0.00 62 1015.6
20260505191534 66 21 5.0 10.0 0.00 0.00 0.00 62 1015.6
20260505190143 66 37 5.0 9.0 0.00 0.00 0.00 62 1015.6
20260505184535 66 33 5.0 11.0 0.00 0.00 0.00 62 1015.7
20260505183036 66 28 4.0 9.0 0.00 0.00 0.00 62 1015.8
20260505181536 65 19 5.0 10.0 0.00 0.00 0.00 62 1015.8
20260505180033 65 36 4.0 11.0 0.00 0.00 0.00 63 1015.8
20260505173030 65 42 4.0 9.0 0.00 0.00 0.00 63 1015.6
20260505171536 65 29 4.0 7.0 0.00 0.00 0.00 64 1015.7
20260505170038 64 24 4.0 8.0 0.00 0.00 0.00 65 1015.6
20260505164609 63 26 3.0 7.0 0.00 0.00 0.00 67 1015.6
20260505163036 63 31 4.0 8.0 0.00 0.00 0.00 68 1015.5
20260505153111 61 35 3.0 7.0 0.00 0.00 0.00 70 1015.4
20260505151536 60 61 2.0 4.0 0.00 0.00 0.00 71 1015.4
20260505124608 56 282 1.0 10.0 0.00 0.00 0.00 75 1014.3
20260505123036 57 268 4.0 10.0 0.00 0.00 0.00 74 1014.3
20260505121535 57 243 5.0 11.0 0.00 0.00 0.00 74 1014.2
20260505120150 58 233 5.0 15.0 0.00 0.00 0.00 74 1014.2
20260505114535 58 242 5.0 11.0 0.00 0.00 0.00 75 1014.1
20260505113033 58 245 5.0 11.0 0.00 0.00 0.00 75 1014.0
20260505111611 58 264 3.0 8.0 0.00 0.00 0.00 73 1013.9
20260505101533 60 231 7.0 17.0 0.00 0.00 0.00 72 1013.6
20260505094534 60 227 8.0 14.0 0.00 0.00 0.00 71 1013.3
20260505093032 61 228 7.0 14.0 0.00 0.00 0.00 71 1013.3